Tracking 19832 objects as of 24-Aug-2019
HD Live streaming from Space Station
objects crossing your sky now

FENGYUN 1C DEB

Track FENGYUN 1C DEB now!
10-day predictions


NORAD ID: 30010
Int'l Code: 1999-025MK
Perigee: 767.3 km
Apogee: 874.5 km
Inclination: 98.8 °
Period: 101.2 minutes
Semi major axis: 7191 km
RCS: 0.1109 m2 (medium)
Launch date: May 10, 1999
Source: People's Republic of China (PRC)
Launch site: Taiyaun Space Center, China (TSC)

Note: This is SATELLITE DEBRIS
aabbcc
Your satellite tracking list
Your tracking list is empty




NASA's NSSDC Master Catalog

Two Line Element Set (TLE):
1 30010U 99025MK  19235.88342475 -.00000014 +00000-0 +13290-4 0  9995
2 30010 098.8478 348.0631 0074557 354.9174 130.6363 14.23427133654889
Source of the keplerian elements: AFSPC